TimeMST,TemperatureF,Dew PointF,Humidity,Sea Level PressureIn,VisibilityMPH,Wind Direction,Wind SpeedMPH,Gust SpeedMPH,PrecipitationIn,Events,Conditions,WindDirDegrees,DateUTC
12:53 AM,19.0,9.0,65,30.12,10.0,SW,6.9,-,N/A,,Clear,220,2013-01-05 07:53:00
1:53 AM,14.0,7.0,74,30.14,10.0,SE,5.8,-,N/A,,Clear,140,2013-01-05 08:53:00
3:53 AM,19.0,9.0,65,30.14,10.0,SSW,4.6,-,N/A,,Clear,200,2013-01-05 10:53:00
4:53 AM,18.0,8.1,65,30.19,10.0,Calm,Calm,-,N/A,,Clear,0,2013-01-05 11:53:00
5:53 AM,15.1,6.1,68,30.25,10.0,Calm,Calm,-,N/A,,Clear,0,2013-01-05 12:53:00
6:53 AM,16.0,6.1,65,30.30,10.0,South,3.5,-,N/A,,Clear,180,2013-01-05 13:53:00
7:53 AM,19.0,7.0,59,30.32,10.0,South,5.8,-,N/A,,Clear,180,2013-01-05 14:53:00
8:53 AM,26.1,10.9,53,30.30,10.0,Variable,3.5,-,N/A,,Clear,0,2013-01-05 15:53:00
9:53 AM,33.1,9.0,37,30.32,10.0,SSE,3.5,-,N/A,,Clear,160,2013-01-05 16:53:00
10:53 AM,36.0,10.9,36,30.31,10.0,NNE,3.5,-,N/A,,Partly Cloudy,20,2013-01-05 17:53:00
11:53 AM,36.0,12.9,39,30.31,10.0,Calm,Calm,-,N/A,,Partly Cloudy,0,2013-01-05 18:53:00
12:53 PM,37.0,12.9,37,30.29,10.0,ESE,4.6,-,N/A,,Partly Cloudy,110,2013-01-05 19:53:00
1:53 PM,36.0,12.9,39,30.33,10.0,East,9.2,-,N/A,,Partly Cloudy,80,2013-01-05 20:53:00
2:53 PM,35.1,14.0,42,30.35,10.0,East,11.5,-,N/A,,Partly Cloudy,100,2013-01-05 21:53:00
3:53 PM,34.0,14.0,44,30.36,10.0,ESE,8.1,-,N/A,,Partly Cloudy,110,2013-01-05 22:53:00
4:53 PM,30.0,16.0,56,30.40,10.0,SSE,5.8,-,N/A,,Partly Cloudy,150,2013-01-05 23:53:00
5:53 PM,25.0,14.0,63,30.45,10.0,South,4.6,-,N/A,,Partly Cloudy,170,2013-01-06 00:53:00
6:53 PM,25.0,15.1,66,30.43,10.0,South,8.1,-,N/A,,Partly Cloudy,180,2013-01-06 01:53:00
7:53 PM,27.0,14.0,58,30.41,10.0,South,10.4,-,N/A,,Clear,170,2013-01-06 02:53:00
8:53 PM,21.9,12.9,68,30.40,10.0,SSE,6.9,-,N/A,,Clear,160,2013-01-06 03:53:00
9:53 PM,25.0,12.0,58,30.35,10.0,South,5.8,-,N/A,,Clear,170,2013-01-06 04:53:00
10:53 PM,24.1,10.0,55,30.34,10.0,SE,5.8,-,N/A,,Clear,130,2013-01-06 05:53:00
11:53 PM,21.9,9.0,58,30.35,10.0,South,5.8,-,N/A,,Clear,180,2013-01-06 06:53:00